LFBHLFMK

Guest
Details From LFBH - La Rochelle Laleu
To LFMK - Salvaza
Flight Number -
Tags Generated
Created
Modified
Stats Distance 232 nm / 430 km
Max Altitude 0 ft / 0 m
Waypoints 3
Social Downloads 0
Likes 0
Share VATSIM

Download

Looking for another format? Having issues loading an existing format? Contact us
Advertisement - Login to hide

Notes

Generated

Route

LFBH ARVEL LFMK

ID Type Via Altitude Latitude Longitude Leg Dist Tot Dist Heading (true) Name
O LFBH APT - 0 ft / 0 m 46.17968˚ -1.21101˚ - 0 nm - -
ARVEL FIX - 0 ft / 0 m 43.45192˚ 2.03414˚ 214 nm 214 nm 139° / 141° -
O LFMK APT - 0 ft / 0 m 43.21714˚ 2.29266˚ 18 nm 232 nm 141° / 141° -

Altitude Profile

Advertisement - Login to hide

Weather


0- 5 10 15 20 25 30 35+ Temperature / ° C

Clouds and Precipitation
Forecast for 2018-05-21 00:00 UTC. Updated 2 hours ago

Ground ~20,000 ft ~40,000 ft Winds

LFBH

Details ICAO LFBH (LRH)
Name La Rochelle Laleu
Region France
Timezone Europe/Paris (UTC+2.0)
Stats Elevation 74 ft / 23 m (AMSL)
Location 46.179245° -1.196410°
Runways 1
Magnetic Variation 0.246° W

METAR

LFBH 210100Z AUTO 05007KT 9999 ///TCU 14/09 Q1012 BECMG NSC

Decode

TAF

TAF LFBH 202300Z 2100/2124 08005KT CAVOK BECMG 2105/2107 FEW045TCU TEMPO 2107/2118 -SHRA SCT040TCU PROB40 TEMPO 2114/2118 VRB15G25KT 3000 -TSRA BKN040TCU SCT050CB BECMG 2118/2120 CAVOK

Decode

Departure Runways

ID Width Length Bearing (true) Bearing (mag) Surface Threshold Offset Overrun Length
10 148 ft / 45 m 7,383 ft / 2,250 m 92.43° 92.68° Asphalt 1,033 ft / 315 m 0 ft / 0 m
28 148 ft / 45 m 7,383 ft / 2,250 m 272.45° 272.70° Asphalt 1,532 ft / 467 m 0 ft / 0 m

LFMK

Details ICAO LFMK (CCF)
Name Salvaza
Region France
Timezone Europe/Paris (UTC+2.0)
Stats Elevation 433 ft / 132 m (AMSL)
Location 43.216122° 2.305496°
Runways 1
Magnetic Variation 0.886° E

METAR

LFMK 210100Z AUTO 12003KT 080V160 CAVOK 15/13 Q1013

Decode

TAF

TAF TAF LFMK 201800Z 2018/2115 CNL

Decode

Destination Runways

ID Width Length Bearing (true) Bearing (mag) Surface Threshold Offset Overrun Length
10 148 ft / 45 m 6,869 ft / 2,094 m 96.20° 95.31° Asphalt 479 ft / 146 m 0 ft / 0 m
28 148 ft / 45 m 6,869 ft / 2,094 m 276.22° 275.33° Asphalt 492 ft / 150 m 0 ft / 0 m

Approach Navaids

Runway Type Ident Frequency Range Bearing (true) Bearing (mag) Slope Elevation
10 Localiser CS 111.10 MHz 27 nm / 50 km 96.29° 95.40° - 433 ft / 132 m (AMSL)
10 Glidescope CS 111.10 MHz 27 nm / 50 km 96.29° 95.40° 3.00° 433 ft / 132 m (AMSL)
10 DME CS 111.10 MHz 27 nm / 50 km - - - 433 ft / 132 m (AMSL)